DELTA 1 DEB, 40756

Orbit data source: Space-Track

DELTA 1 DEB, 40756 is space debris in SSO originally from a launch on Thu, 29 Jul 1976 UTC launched from the Air Force Western Test Range (AFWTR). Debris objects in space refer to the collection of defunct objects orbiting the Earth. Examples of debris include non-operational satellites, rocket bodies, and fragments generated from explosions, collisions, or faulty payload assembly.

Loading next visibility...
Identifier
40756, 1976-077FZ
Orbit
SSO
Country
Flag of USUS
Related business
Manufacturer
Unknown
Mission
Spacecraft
Bus & Motor
Unknown
Mass
Unknown
Launch date (UTC)
1976-07-29 (50 years ago)
Launch vehicle
Unknown
Launch site
Air Force Western Test Range (AFWTR)
Object type
Payload
Rocket body
Debris
Shape & HBR
Unknown shape, 0.1 m
Radar Cross Section
Medium (>0.1 m² and <1 m²)

Expand to show TLE details & history
Last TLE update: 1 week ago

TLE from 1 week ago
0 DELTA 1 DEB
1 40756U 76077FZ  26248.71786571 -.00000031  00000-0  13696-3 0  9996
2 40756 102.5807 234.1578 0077012 233.8302 302.5728 12.25958511966406
Epoch: 2026-09-05T17:13Z
TLE epoch observation values (Epoch: 2026-09-05T17:13:43.597Z)
Latitude
4.16023°
Longitude
171.82842°
Altitude
1,536.15 km
Speed
7.113 km/s
True Right ascension
03h 40m 20s
True Declination
4° 08' 16"
Sunlit
Object was in daylight at epoch
Visualization orbit readout
Latitude
Unknown
Longitude
Unknown
Altitude
Unknown
Speed
Unknown
Apparent Right ascension
Unknown
Apparent Declination
Unknown
Sunlit
N/A
Visualization observer readout
Local Sidereal Time
17:32:59
Azimuth
Unknown
Elevation
Unknown
Doppler factor
Unknown
Orbital elements
Apogee altitude
1,625.488 km
Perigee altitude
1,503.155 km
Semi-major axis
7,942.459 km
Eccentricity
0.0077
Inclination
102.5807°
RAAN
234.1578°
Arg. of periapsis
233.8302°
True anomaly
301.82526°
Mean anomaly
302.5728°
Eccentric anomaly
302.19942°
Mean motion
3.06627 °/min
Orbital period
117.41 mins
BSTAR
0.00013696
Loading maneuver chart data...
Computing Atmospheric mass density...
Loading historical data...
Loading historical data...
Loading historical data...
Loading historical data...
Loading historical data...
Loading historical data...
Loading historical data...

Documentation

Showing up to 5 results
|